User: anonymous   Login
Location: DaVinci Observatory
(43.1080°N, 78.6453°W)
Time: 09:04:30
(UTC-05:00)
Language:

Tiangong 1 - Orbit

View from above orbital plane
View from above orbital plane
View from above satellite
View from above satellite

Ground track
Ground track

The orbit data is extracted from the following two-line orbital elements,

1 37820U 11053A   17351.18032407  .00052324  93342-5  13159-3 0  9996
2 37820  42.7526 148.2231 0020095 311.5135  37.9477 15.95203729357010
Epoch (UTC): 17 December 2017 04:19:40
Eccentricity: 0.0020095
inclination: 42.7526°
perigee height: 274 km
apogee height: 301 km
right ascension of ascending node: 148.2231°
argument of perigee: 311.5135°
revolutions per day: 15.95203729
mean anomaly at epoch: 37.9477°
orbit number at epoch: 35701

The dashed part of the orbit path shows where the satellite is in the earth's shadow,  

DLR